EW8705 Weather Reports


time (UTC)temp
F
wind
direction
speed
knots
gust
knots
rain 1hr
in
rain 24hr
in
rain mn
in
humidity
%
barometer
mb
20260506214545 53 136 0.0 1.7 0.00 0.00 0.00 92 1016.3
20260506213042 53 165 0.0 1.7 0.00 0.00 0.00 92 1016.4
20260506211538 53 165 0.0 1.7 0.00 0.00 0.00 91 1016.4
20260506210036 54 157 0.0 1.7 0.00 0.00 0.00 90 1016.5
20260506164553 61 79 0.0 0.0 0.00 0.00 0.00 76 1015.3
20260506163044 62 79 0.0 0.0 0.00 0.00 0.00 75 1015.2
20260506161544 63 65 0.0 0.0 0.00 0.00 0.00 73 1015.2
20260506160045 63 94 0.0 0.0 0.00 0.00 0.00 73 1015.1
20260506154549 63 95 0.0 0.0 0.00 0.01 0.00 72 1015.1
20260506153047 63 83 0.0 0.9 0.00 0.01 0.00 72 1015.0
20260506151542 63 91 0.0 0.0 0.00 0.01 0.00 73 1015.0
20260506150043 63 96 0.0 0.9 0.00 0.01 0.00 73 1015.1
20260506144542 62 121 0.0 0.9 0.00 0.08 0.00 74 1015.1
20260506143043 62 107 0.0 1.7 0.00 0.08 0.00 76 1015.1
20260506141540 62 110 0.0 3.5 0.00 0.08 0.00 76 1015.3
20260506140041 62 126 0.0 4.3 0.00 0.08 0.00 77 1015.3
20260506134539 62 105 0.9 4.3 0.00 0.08 0.00 76 1015.5
20260506133039 62 144 1.7 4.3 0.00 0.08 0.00 75 1015.4
20260506131547 62 150 0.9 5.2 0.00 0.08 0.00 77 1015.5
20260506130052 62 138 0.0 4.3 0.00 0.08 0.00 77 1015.5
20260506124536 63 160 0.0 2.6 0.00 0.08 0.00 76 1015.6
20260506123037 62 323 0.9 3.5 0.00 0.08 0.00 73 1015.6
20260506121534 62 306 0.0 2.6 0.00 0.08 0.00 74 1015.7
20260506120035 62 311 0.9 5.2 0.00 0.08 0.00 74 1015.6
20260506114535 62 311 3.5 6.1 0.00 0.09 0.00 74 1015.8
20260506113035 62 335 2.6 8.7 0.00 0.09 0.00 74 1015.8
20260506111531 62 313 3.5 11.3 0.00 0.09 0.00 74 1015.9
20260506110030 62 323 3.5 8.7 0.00 0.09 0.00 73 1015.8
20260506104530 63 281 4.3 13.0 0.00 0.16 0.00 72 1015.7
20260506103033 63 302 1.7 9.6 0.00 0.16 0.00 71 1015.7
20260506101541 64 297 3.5 8.7 0.00 0.16 0.00 69 1015.7
20260506100027 65 305 5.2 9.6 0.00 0.16 0.00 68 1015.8
20260506094526 65 324 6.1 13.0 0.00 0.16 0.00 66 1015.8
20260506093037 65 320 7.0 15.6 0.00 0.16 0.00 67 1015.9
20260506091526 64 280 8.7 13.9 0.00 0.16 0.00 68 1015.9
20260506090025 64 286 4.3 9.6 0.00 0.16 0.00 69 1015.9
20260506084523 64 339 6.1 12.2 0.00 0.27 0.00 67 1015.9
20260506083022 64 294 7.0 12.2 0.00 0.27 0.00 66 1015.8
20260506081531 65 308 7.0 11.3 0.00 0.27 0.00 66 1015.7
20260506073032 65 292 4.3 10.4 0.00 0.57 0.00 67 1015.5
20260506071515 64 286 5.2 10.4 0.00 0.57 0.00 65 1015.5
20260506061510 64 334 3.5 9.6 0.00 0.76 0.00 63 1015.3